CPA643 KLAX-KSEA

Flight info

Callsign CPA643
Flight time 2h 6m
Altitude 38000
Route LADYJ4 CSTRO SHIMR LKV HAWKZ8
Aircraft A346/H-SDE2E3FGHIJ3J4J5M1RWXY/LB1D1

Departure

Time 2026-04-21 22:26
Airport Los Angeles International Airport (KLAX)

Arrival

Time 2026-04-22 00:32
Airport Seattle–Tacoma International Airport (KSEA)
Time Latitude Longitude Altitude Speed Heading
2026-04-21 21:56 33.94481 -118.41616 101 ft 0 kts 83°
2026-04-21 22:15 33.94481 -118.41623 101 ft 4 kts 82°
2026-04-21 22:15 33.94475 -118.41654 101 ft 4 kts 70°
2026-04-21 22:16 33.94464 -118.41679 101 ft 4 kts 46°
2026-04-21 22:16 33.94451 -118.41689 101 ft 4 kts
2026-04-21 22:16 33.94445 -118.41690 101 ft 0 kts 353°
2026-04-21 22:19 33.94451 -118.41691 101 ft 4 kts 353°
2026-04-21 22:19 33.94499 -118.41698 101 ft 9 kts 353°
2026-04-21 22:19 33.94575 -118.41709 101 ft 12 kts 354°
2026-04-21 22:20 33.94618 -118.41701 101 ft 4 kts 38°
2026-04-21 22:20 33.94644 -118.41666 101 ft 7 kts 60°
2026-04-21 22:20 33.94664 -118.41596 101 ft 11 kts 76°
2026-04-21 22:20 33.94677 -118.41495 101 ft 14 kts 85°
2026-04-21 22:21 33.94686 -118.41355 101 ft 19 kts 84°
2026-04-21 22:21 33.94713 -118.41187 102 ft 22 kts 75°
2026-04-21 22:21 33.94739 -118.41018 102 ft 11 kts 82°
2026-04-21 22:21 33.94742 -118.40973 102 ft 0 kts 88°
2026-04-21 22:22 33.94743 -118.40967 102 ft 4 kts 87°
2026-04-21 22:22 33.94753 -118.40851 102 ft 25 kts 82°
2026-04-21 22:22 33.94781 -118.40668 102 ft 11 kts 66°
2026-04-21 22:22 33.94810 -118.40629 102 ft 6 kts 32°
2026-04-21 22:23 33.94852 -118.40581 102 ft 10 kts 59°
2026-04-21 22:23 33.94877 -118.40488 102 ft 13 kts 76°
2026-04-21 22:23 33.94891 -118.40353 102 ft 21 kts 85°
2026-04-21 22:23 33.94909 -118.40163 102 ft 24 kts 82°
2026-04-21 22:24 33.94928 -118.39984 101 ft 4 kts 74°
2026-04-21 22:24 33.94928 -118.39983 101 ft 0 kts 73°
2026-04-21 22:24 33.94929 -118.39980 101 ft 1 kts 72°
2026-04-21 22:24 33.94939 -118.39955 101 ft 5 kts 57°
2026-04-21 22:25 33.94979 -118.39920 101 ft 9 kts 15°
2026-04-21 22:25 33.95032 -118.39971 101 ft 21 kts 278°
2026-04-21 22:25 33.94989 -118.40476 105 ft 106 kts 263°
2026-04-21 22:25 33.94868 -118.41717 132 ft 187 kts 266°
2026-04-21 22:26 33.94714 -118.43419 827 ft 215 kts 264°
2026-04-21 22:26 33.94556 -118.45343 1647 ft 239 kts 263°
2026-04-21 22:26 33.94402 -118.47355 2912 ft 245 kts 266°
2026-04-21 22:26 33.94311 -118.49402 4103 ft 239 kts 266°
2026-04-21 22:27 33.94205 -118.51314 5276 ft 218 kts 264°
2026-04-21 22:27 33.94069 -118.53040 6414 ft 198 kts 264°
2026-04-21 22:27 33.93934 -118.54724 7117 ft 201 kts 264°
2026-04-21 22:27 33.93797 -118.56426 7741 ft 209 kts 264°
2026-04-21 22:28 33.93649 -118.58294 7888 ft 239 kts 264°
2026-04-21 22:28 33.93486 -118.60422 7895 ft 271 kts 267°
2026-04-21 22:28 33.93782 -118.62714 7869 ft 284 kts 294°
2026-04-21 22:28 33.94980 -118.64600 7876 ft 288 kts 321°
2026-04-21 22:29 33.96640 -118.65894 7891 ft 288 kts 328°
2026-04-21 22:29 33.98391 -118.67083 7877 ft 289 kts 336°
2026-04-21 22:29 34.00336 -118.67683 7877 ft 289 kts 355°
2026-04-21 22:29 34.02377 -118.67653 7885 ft 290 kts
2026-04-21 22:30 34.04401 -118.67489 7881 ft 290 kts
2026-04-21 22:30 34.06382 -118.67322 7878 ft 290 kts
2026-04-21 22:30 34.08387 -118.67044 7885 ft 292 kts
2026-04-21 22:30 34.10452 -118.66583 8325 ft 301 kts 11°
2026-04-21 22:31 34.12466 -118.66098 9308 ft 297 kts 11°
2026-04-21 22:31 34.14492 -118.65610 10162 ft 298 kts 11°
2026-04-21 22:31 34.16568 -118.65113 10653 ft 312 kts 11°
2026-04-21 22:31 34.18752 -118.64594 10978 ft 329 kts 11°
2026-04-21 22:32 34.21054 -118.64048 11276 ft 345 kts 11°
2026-04-21 22:32 34.23487 -118.63651 11554 ft 360 kts
2026-04-21 22:32 34.26053 -118.63693 11814 ft 374 kts 354°
2026-04-21 22:32 34.28675 -118.64165 12061 ft 387 kts 349°
2026-04-21 22:33 34.31358 -118.64787 12349 ft 397 kts 348°
2026-04-21 22:33 34.34095 -118.65442 12818 ft 401 kts 348°
2026-04-21 22:33 34.36841 -118.66090 13316 ft 403 kts 348°
2026-04-21 22:33 34.39606 -118.66730 13769 ft 406 kts 349°
2026-04-21 22:34 34.42394 -118.67370 14192 ft 410 kts 349°
2026-04-21 22:34 34.45208 -118.67963 14595 ft 412 kts 350°
2026-04-21 22:34 34.48058 -118.68513 14982 ft 415 kts 351°
2026-04-21 22:34 34.50924 -118.69058 15349 ft 418 kts 351°
2026-04-21 22:35 34.53794 -118.69607 15696 ft 420 kts 351°
2026-04-21 22:35 34.56717 -118.70172 16028 ft 423 kts 351°
2026-04-21 22:35 34.59660 -118.70744 16339 ft 425 kts 351°
2026-04-21 22:35 34.62593 -118.71317 16636 ft 427 kts 351°
2026-04-21 22:36 34.68491 -118.72497 17177 ft 431 kts 348°
2026-04-21 22:36 34.71399 -118.73430 17430 ft 433 kts 341°
2026-04-21 22:36 34.74207 -118.74775 17670 ft 434 kts 335°
2026-04-21 22:37 34.76909 -118.76486 17902 ft 436 kts 330°
2026-04-21 22:37 34.79561 -118.78301 18114 ft 438 kts 330°
2026-04-21 22:37 34.82213 -118.80142 18319 ft 439 kts 330°
2026-04-21 22:37 34.84870 -118.81988 18508 ft 441 kts 330°
2026-04-21 22:38 34.87545 -118.83841 18692 ft 442 kts 330°
2026-04-21 22:38 34.90228 -118.85695 18866 ft 444 kts 330°
2026-04-21 22:38 34.92919 -118.87552 19031 ft 445 kts 330°
2026-04-21 22:38 34.95637 -118.89427 19190 ft 446 kts 330°
2026-04-21 22:39 34.98343 -118.91294 19341 ft 448 kts 330°
2026-04-21 22:39 35.01054 -118.93165 19483 ft 449 kts 330°
2026-04-21 22:39 35.02853 -118.94408 19572 ft 450 kts 330°
2026-04-21 22:39 35.05583 -118.96293 19717 ft 451 kts 330°
2026-04-21 22:40 35.08308 -118.98178 19859 ft 452 kts 330°
2026-04-21 22:40 35.11051 -119.00075 19989 ft 453 kts 330°
2026-04-21 22:40 35.13795 -119.01975 20120 ft 454 kts 330°
2026-04-21 22:40 35.16544 -119.03880 20244 ft 455 kts 330°
2026-04-21 22:41 35.19298 -119.05789 20370 ft 455 kts 330°
2026-04-21 22:41 35.22064 -119.07709 20474 ft 457 kts 330°
2026-04-21 22:41 35.24826 -119.09627 20573 ft 457 kts 330°
2026-04-21 22:41 35.27600 -119.11554 20673 ft 458 kts 330°
2026-04-21 22:42 35.30376 -119.13486 20764 ft 459 kts 330°
2026-04-21 22:42 35.33157 -119.15420 20854 ft 460 kts 330°
2026-04-21 22:42 35.35950 -119.17366 20941 ft 460 kts 330°
2026-04-21 22:42 35.38738 -119.19311 21020 ft 461 kts 330°
2026-04-21 22:43 35.41546 -119.21230 21093 ft 462 kts 332°
2026-04-21 22:43 35.44474 -119.22905 21165 ft 463 kts 337°
2026-04-21 22:43 35.47500 -119.24261 21299 ft 462 kts 342°
2026-04-21 22:43 35.50605 -119.25319 21349 ft 464 kts 345°
2026-04-21 22:44 35.53741 -119.26269 21409 ft 465 kts 346°
2026-04-21 22:44 35.56911 -119.27204 21479 ft 466 kts 346°
2026-04-21 22:44 35.60065 -119.28133 21545 ft 466 kts 346°
2026-04-21 22:44 35.63224 -119.29066 21608 ft 467 kts 346°
2026-04-21 22:45 35.66374 -119.30002 21665 ft 467 kts 346°
2026-04-21 22:45 35.69542 -119.30947 21722 ft 468 kts 346°
2026-04-21 22:45 35.72720 -119.31898 21777 ft 468 kts 346°
2026-04-21 22:45 35.75949 -119.32866 21829 ft 469 kts 346°
2026-04-21 22:46 35.79152 -119.33827 21876 ft 469 kts 346°
2026-04-21 22:46 35.82321 -119.34779 21926 ft 469 kts 346°
2026-04-21 22:46 35.85495 -119.35734 21969 ft 470 kts 346°
2026-04-21 22:46 35.88668 -119.36690 22114 ft 467 kts 346°
2026-04-21 22:47 35.91797 -119.37633 22490 ft 460 kts 346°
2026-04-21 22:47 35.94889 -119.38566 22864 ft 453 kts 346°
2026-04-21 22:47 35.97947 -119.39489 23240 ft 447 kts 346°
2026-04-21 22:47 36.00937 -119.40393 23614 ft 441 kts 346°
2026-04-21 22:48 36.03895 -119.41288 23987 ft 435 kts 346°
2026-04-21 22:48 36.06813 -119.42171 24362 ft 429 kts 346°
2026-04-21 22:48 36.09696 -119.43044 24736 ft 424 kts 346°
2026-04-21 22:48 36.12541 -119.43907 25110 ft 418 kts 346°
2026-04-21 22:49 36.15351 -119.44760 25484 ft 413 kts 346°
2026-04-21 22:49 36.18123 -119.45602 25858 ft 407 kts 346°
2026-04-21 22:49 36.20855 -119.46432 26231 ft 402 kts 346°
2026-04-21 22:49 36.23544 -119.47250 26605 ft 396 kts 346°
2026-04-21 22:50 36.26195 -119.48057 26978 ft 390 kts 346°
2026-04-21 22:50 36.28812 -119.48854 27350 ft 383 kts 346°
2026-04-21 22:50 36.31409 -119.49646 27727 ft 377 kts 346°
2026-04-21 22:50 36.33929 -119.50414 28099 ft 369 kts 346°
2026-04-21 22:51 36.36369 -119.51158 28466 ft 362 kts 346°
2026-04-21 22:51 36.38784 -119.51896 28836 ft 354 kts 346°
2026-04-21 22:51 36.41152 -119.52619 29205 ft 346 kts 346°
2026-04-21 22:51 36.43454 -119.53323 29575 ft 336 kts 346°
2026-04-21 22:52 36.45696 -119.54009 29942 ft 326 kts 346°
2026-04-21 22:52 36.47862 -119.54672 30308 ft 316 kts 346°
2026-04-21 22:52 36.49962 -119.55315 30673 ft 304 kts 345°
2026-04-21 22:52 36.51996 -119.55939 30960 ft 295 kts 345°
2026-04-21 22:53 36.54012 -119.56558 30952 ft 299 kts 345°
2026-04-21 22:53 36.56063 -119.57188 30931 ft 301 kts 345°
2026-04-21 22:53 36.60192 -119.58456 30830 ft 313 kts 345°
2026-04-21 22:54 36.64692 -119.59840 30887 ft 315 kts 345°
2026-04-21 22:54 36.68988 -119.61161 30805 ft 320 kts 345°
2026-04-21 22:55 36.71067 -119.61801 30766 ft 323 kts 345°
2026-04-21 22:56 36.71384 -119.61899 30760 ft 323 kts 345°
2026-04-21 22:56 36.75870 -119.63281 30734 ft 334 kts 346°
2026-04-21 22:57 36.80424 -119.64685 30746 ft 337 kts 346°
2026-04-21 22:57 36.85142 -119.66136 30817 ft 361 kts 346°
2026-04-21 22:58 36.87625 -119.66902 31121 ft 374 kts 346°
2026-04-21 22:58 36.90201 -119.67697 31401 ft 388 kts 346°
2026-04-21 22:58 36.92866 -119.68521 31671 ft 401 kts 346°
2026-04-21 22:58 36.95621 -119.69374 31950 ft 414 kts 346°
2026-04-21 22:59 36.98460 -119.70254 32219 ft 427 kts 346°
2026-04-21 22:59 37.01373 -119.71158 32464 ft 439 kts 346°
2026-04-21 22:59 37.01493 -119.71195 32476 ft 440 kts 346°
2026-04-21 23:00 37.02963 -119.71651 32601 ft 446 kts 346°
2026-04-21 23:00 37.06018 -119.72600 32853 ft 458 kts 346°
2026-04-21 23:00 37.09141 -119.73572 33107 ft 468 kts 346°
2026-04-21 23:00 37.12283 -119.74549 33557 ft 473 kts 346°
2026-04-21 23:01 37.15535 -119.75562 34240 ft 473 kts 346°
2026-04-21 23:01 37.18714 -119.76553 35023 ft 470 kts 346°
2026-04-21 23:01 37.21882 -119.77541 35759 ft 467 kts 346°
2026-04-21 23:01 37.22903 -119.77860 35995 ft 467 kts 346°
2026-04-21 23:02 37.28181 -119.79509 36960 ft 467 kts 346°
2026-04-21 23:02 37.31297 -119.80485 37332 ft 471 kts 346°
2026-04-21 23:02 37.34486 -119.81484 37694 ft 474 kts 346°
2026-04-21 23:02 37.37694 -119.82489 37980 ft 477 kts 346°
2026-04-21 23:03 37.44213 -119.84536 37996 ft 480 kts 346°
2026-04-21 23:03 37.50718 -119.86581 37998 ft 481 kts 346°
2026-04-21 23:04 37.57135 -119.88602 37998 ft 484 kts 346°
2026-04-21 23:04 37.60315 -119.89605 38022 ft 480 kts 346°
2026-04-21 23:05 37.63377 -119.90572 38006 ft 474 kts 346°
2026-04-21 23:05 37.69460 -119.92490 37983 ft 480 kts 345°
2026-04-21 23:06 37.76013 -119.94569 37990 ft 483 kts 346°
2026-04-21 23:06 37.82637 -119.96649 38035 ft 481 kts 337°
2026-04-21 23:07 37.85807 -119.97531 38421 ft 451 kts 336°
2026-04-21 23:07 37.88777 -119.98419 38454 ft 432 kts 335°
2026-04-21 23:07 37.91663 -119.99391 38325 ft 426 kts 334°
2026-04-21 23:07 37.94554 -120.00421 38242 ft 429 kts 342°
2026-04-21 23:08 38.00440 -120.02397 38272 ft 446 kts 346°
2026-04-21 23:08 38.06596 -120.04281 38196 ft 463 kts 342°
2026-04-21 23:09 38.12882 -120.06326 38288 ft 476 kts 343°
2026-04-21 23:09 38.19472 -120.08440 38269 ft 494 kts 345°
2026-04-21 23:10 38.26402 -120.09986 38272 ft 511 kts 353°
2026-04-21 23:10 38.33611 -120.10696 38164 ft 511 kts 356°
2026-04-21 23:11 38.37119 -120.10982 37786 ft 501 kts 356°
2026-04-21 23:11 38.40559 -120.11270 37791 ft 491 kts 356°
2026-04-21 23:11 38.43967 -120.11563 37915 ft 491 kts 355°
2026-04-21 23:11 38.47393 -120.11865 37954 ft 491 kts 355°
2026-04-21 23:12 38.54200 -120.12477 37991 ft 491 kts 355°
2026-04-21 23:12 38.61029 -120.13099 37998 ft 492 kts 355°
2026-04-21 23:13 38.67899 -120.13728 37999 ft 492 kts 355°
2026-04-21 23:13 38.74769 -120.14358 38001 ft 482 kts 355°
2026-04-21 23:14 38.81403 -120.14967 37997 ft 475 kts 355°
2026-04-21 23:14 38.88052 -120.15580 37999 ft 479 kts 355°
2026-04-21 23:15 38.94742 -120.16197 38000 ft 479 kts 355°
2026-04-21 23:15 39.01419 -120.16814 38006 ft 478 kts 355°
2026-04-21 23:16 39.08160 -120.17439 37996 ft 490 kts 355°
2026-04-21 23:16 39.14973 -120.18071 37998 ft 491 kts 355°
2026-04-21 23:17 39.21788 -120.18705 37998 ft 491 kts 355°
2026-04-21 23:17 39.28603 -120.19340 37999 ft 490 kts 355°
2026-04-21 23:18 39.35399 -120.19974 37998 ft 489 kts 355°
2026-04-21 23:18 39.42165 -120.20607 37998 ft 489 kts 355°
2026-04-21 23:19 39.48969 -120.21245 37999 ft 490 kts 355°
2026-04-21 23:19 39.55771 -120.21884 37998 ft 490 kts 355°
2026-04-21 23:20 39.62563 -120.22524 38022 ft 485 kts 355°
2026-04-21 23:20 39.69300 -120.23158 37995 ft 486 kts 355°
2026-04-21 23:21 39.76024 -120.23791 38021 ft 483 kts 355°
2026-04-21 23:21 39.82754 -120.24429 38025 ft 483 kts 355°
2026-04-21 23:22 39.89532 -120.25069 38023 ft 485 kts 355°
2026-04-21 23:22 39.92942 -120.25379 37999 ft 497 kts 353°
2026-04-21 23:22 39.96432 -120.25715 38019 ft 508 kts 353°
2026-04-21 23:23 39.99994 -120.26069 38027 ft 520 kts 353°
2026-04-21 23:23 40.03617 -120.26428 38028 ft 527 kts 353°
2026-04-21 23:23 40.10962 -120.27143 38024 ft 530 kts 353°
2026-04-21 23:24 40.18319 -120.27851 38022 ft 531 kts 354°
2026-04-21 23:24 40.25695 -120.28547 38025 ft 531 kts 354°
2026-04-21 23:25 40.33115 -120.29253 38028 ft 531 kts 353°
2026-04-21 23:25 40.40462 -120.29958 38025 ft 531 kts 353°
2026-04-21 23:26 40.46708 -120.30558 38026 ft 531 kts 353°
2026-04-21 23:26 40.51407 -120.31014 38026 ft 531 kts 353°
2026-04-21 23:27 40.58836 -120.31734 38025 ft 531 kts 353°
2026-04-21 23:27 40.65056 -120.32334 38027 ft 530 kts 353°
2026-04-21 23:28 40.72415 -120.33051 38026 ft 530 kts 353°
2026-04-21 23:28 40.79832 -120.33775 38026 ft 530 kts 353°
2026-04-21 23:29 40.87239 -120.34498 38025 ft 530 kts 353°
2026-04-21 23:29 40.94759 -120.35233 38026 ft 530 kts 353°
2026-04-21 23:30 41.02068 -120.35949 38030 ft 530 kts 353°
2026-04-21 23:30 41.09465 -120.36680 38026 ft 530 kts 353°
2026-04-21 23:31 41.16843 -120.37408 38026 ft 531 kts 353°
2026-04-21 23:31 41.24247 -120.38138 38025 ft 531 kts 353°
2026-04-21 23:32 41.31639 -120.38867 38030 ft 531 kts 353°
2026-04-21 23:32 41.39011 -120.39599 38026 ft 531 kts 353°
2026-04-21 23:33 41.46365 -120.40331 38026 ft 531 kts 353°
2026-04-21 23:33 41.53764 -120.41068 38024 ft 531 kts 353°
2026-04-21 23:34 41.61129 -120.41803 38028 ft 531 kts 353°
2026-04-21 23:34 41.68521 -120.42542 38025 ft 531 kts 353°
2026-04-21 23:35 41.75885 -120.43280 38026 ft 531 kts 353°
2026-04-21 23:35 41.83270 -120.44022 38026 ft 531 kts 353°
2026-04-21 23:36 41.90703 -120.44771 38027 ft 531 kts 353°
2026-04-21 23:36 41.98057 -120.45513 38029 ft 531 kts 353°
2026-04-21 23:37 42.05469 -120.46263 38026 ft 531 kts 353°
2026-04-21 23:37 42.12907 -120.47018 38026 ft 531 kts 353°
2026-04-21 23:38 42.20287 -120.47767 38027 ft 531 kts 353°
2026-04-21 23:38 42.27690 -120.48520 38025 ft 531 kts 353°
2026-04-21 23:39 42.35091 -120.49273 38024 ft 530 kts 353°
2026-04-21 23:39 42.42390 -120.50188 38027 ft 528 kts 349°
2026-04-21 23:40 42.49576 -120.52102 38023 ft 524 kts 342°
2026-04-21 23:40 42.56488 -120.55119 38030 ft 520 kts 334°
2026-04-21 23:41 42.63122 -120.59003 38025 ft 519 kts 331°
2026-04-21 23:41 42.69698 -120.63049 38025 ft 520 kts 331°
2026-04-21 23:42 42.76341 -120.67122 38024 ft 521 kts 332°
2026-04-21 23:42 42.82953 -120.71160 38026 ft 521 kts 332°
2026-04-21 23:43 42.89602 -120.75221 38026 ft 521 kts 332°
2026-04-21 23:43 42.96231 -120.79279 38025 ft 521 kts 332°
2026-04-21 23:44 43.02829 -120.83326 38027 ft 520 kts 332°
2026-04-21 23:44 43.09449 -120.87401 38028 ft 521 kts 332°
2026-04-21 23:45 43.19366 -120.93519 38027 ft 521 kts 332°
2026-04-21 23:46 43.26088 -120.97677 38033 ft 520 kts 331°
2026-04-21 23:46 43.32734 -121.01801 38025 ft 521 kts 331°
2026-04-21 23:47 43.39393 -121.05942 38026 ft 521 kts 331°
2026-04-21 23:47 43.46043 -121.10087 38028 ft 521 kts 331°
2026-04-21 23:48 43.52652 -121.14217 38026 ft 520 kts 331°
2026-04-21 23:48 43.59262 -121.18356 38028 ft 520 kts 331°
2026-04-21 23:49 43.65894 -121.22519 38027 ft 519 kts 331°
2026-04-21 23:49 43.72522 -121.26690 38027 ft 519 kts 331°
2026-04-21 23:50 43.79036 -121.30800 38028 ft 519 kts 331°
2026-04-21 23:50 43.85659 -121.34995 38026 ft 520 kts 331°
2026-04-21 23:51 43.92219 -121.39159 38024 ft 521 kts 331°
2026-04-21 23:51 43.98812 -121.43350 38025 ft 521 kts 331°
2026-04-21 23:52 44.05441 -121.47573 38025 ft 521 kts 331°
2026-04-21 23:52 44.12031 -121.51782 38029 ft 521 kts 331°
2026-04-21 23:53 44.18638 -121.56014 38025 ft 521 kts 331°
2026-04-21 23:53 44.25228 -121.60245 38026 ft 521 kts 331°
2026-04-21 23:54 44.31928 -121.64558 38025 ft 522 kts 331°
2026-04-21 23:54 44.38521 -121.68810 38026 ft 522 kts 331°
2026-04-21 23:55 44.45227 -121.73147 38025 ft 522 kts 331°
2026-04-21 23:55 44.51850 -121.77441 38027 ft 521 kts 331°
2026-04-21 23:56 44.58429 -121.81717 38025 ft 519 kts 330°
2026-04-21 23:56 44.64976 -121.85986 38025 ft 520 kts 331°
2026-04-21 23:57 44.71603 -121.90317 38022 ft 521 kts 331°
2026-04-21 23:57 44.78198 -121.94636 37940 ft 522 kts 331°
2026-04-21 23:57 44.81490 -121.96795 37692 ft 520 kts 331°
2026-04-21 23:58 44.84836 -121.98990 37434 ft 516 kts 331°
2026-04-21 23:58 44.88096 -122.01133 37176 ft 512 kts 330°
2026-04-21 23:58 44.91343 -122.03271 36934 ft 509 kts 330°
2026-04-21 23:58 44.94578 -122.05403 36691 ft 507 kts 330°
2026-04-21 23:59 44.97769 -122.07513 36426 ft 506 kts 330°
2026-04-21 23:59 45.00925 -122.09601 36170 ft 506 kts 330°
2026-04-21 23:59 45.04149 -122.11736 35924 ft 504 kts 330°
2026-04-21 23:59 45.07325 -122.13839 35670 ft 503 kts 330°
2026-04-22 00:00 45.10529 -122.15966 35418 ft 504 kts 330°
2026-04-22 00:00 45.13711 -122.18082 35167 ft 504 kts 330°
2026-04-22 00:00 45.16882 -122.20189 34919 ft 504 kts 330°
2026-04-22 00:00 45.20073 -122.22315 34665 ft 504 kts 330°
2026-04-22 00:01 45.23280 -122.24454 34404 ft 505 kts 330°
2026-04-22 00:01 45.26465 -122.26579 34157 ft 504 kts 330°
2026-04-22 00:01 45.29672 -122.28723 33904 ft 504 kts 330°
2026-04-22 00:01 45.32844 -122.30849 33648 ft 504 kts 330°
2026-04-22 00:02 45.36011 -122.32977 33399 ft 504 kts 330°
2026-04-22 00:02 45.39180 -122.35107 33152 ft 504 kts 330°
2026-04-22 00:02 45.42369 -122.37254 32900 ft 503 kts 330°
2026-04-22 00:02 45.45534 -122.39387 32651 ft 503 kts 330°
2026-04-22 00:03 45.48694 -122.41519 32397 ft 503 kts 330°
2026-04-22 00:03 45.51815 -122.43627 32156 ft 503 kts 330°
2026-04-22 00:03 45.54976 -122.45763 31900 ft 503 kts 330°
2026-04-22 00:03 45.58136 -122.47903 31639 ft 502 kts 330°
2026-04-22 00:04 45.61293 -122.50043 31397 ft 502 kts 330°
2026-04-22 00:04 45.64451 -122.52187 31143 ft 502 kts 330°
2026-04-22 00:04 45.67622 -122.54340 30896 ft 502 kts 330°
2026-04-22 00:04 45.70829 -122.56336 30642 ft 504 kts 334°
2026-04-22 00:05 45.74121 -122.58085 30401 ft 505 kts 337°
2026-04-22 00:05 45.77489 -122.59562 30131 ft 507 kts 341°
2026-04-22 00:05 45.80964 -122.60772 29675 ft 509 kts 344°
2026-04-22 00:05 45.84458 -122.61718 29040 ft 510 kts 346°
2026-04-22 00:06 45.87949 -122.62561 28336 ft 509 kts 347°
2026-04-22 00:06 45.91434 -122.63379 27650 ft 505 kts 347°
2026-04-22 00:06 45.94874 -122.64192 27136 ft 497 kts 347°
2026-04-22 00:06 45.98267 -122.65009 26623 ft 490 kts 347°
2026-04-22 00:07 46.01644 -122.65834 26135 ft 482 kts 347°
2026-04-22 00:07 46.04926 -122.66644 25627 ft 475 kts 346°
2026-04-22 00:07 46.08165 -122.67448 25152 ft 468 kts 346°
2026-04-22 00:07 46.11360 -122.68201 24680 ft 462 kts 348°
2026-04-22 00:08 46.14521 -122.68832 24215 ft 456 kts 349°
2026-04-22 00:08 46.17642 -122.69420 23722 ft 450 kts 349°
2026-04-22 00:08 46.20732 -122.70007 23215 ft 445 kts 349°
2026-04-22 00:08 46.23802 -122.70603 22727 ft 441 kts 349°
2026-04-22 00:09 46.26844 -122.71203 22244 ft 436 kts 348°
2026-04-22 00:09 46.29838 -122.71790 21751 ft 433 kts 349°
2026-04-22 00:09 46.32827 -122.72207 21257 ft 430 kts 353°
2026-04-22 00:09 46.35809 -122.72403 20768 ft 427 kts 355°
2026-04-22 00:10 46.38784 -122.72517 20283 ft 423 kts 355°
2026-04-22 00:10 46.41717 -122.72611 19794 ft 420 kts 355°
2026-04-22 00:10 46.44635 -122.72705 19304 ft 416 kts 355°
2026-04-22 00:10 46.47514 -122.72802 18825 ft 412 kts 355°
2026-04-22 00:11 46.50370 -122.72902 18332 ft 408 kts 355°
2026-04-22 00:11 46.53201 -122.73003 17860 ft 404 kts 355°
2026-04-22 00:11 46.56018 -122.73104 17376 ft 401 kts 355°
2026-04-22 00:11 46.58792 -122.73204 16894 ft 396 kts 355°
2026-04-22 00:12 46.61514 -122.73301 16408 ft 388 kts 356°
2026-04-22 00:12 46.64177 -122.73398 15983 ft 383 kts 356°
2026-04-22 00:12 46.66841 -122.73493 15744 ft 372 kts 356°
2026-04-22 00:12 46.68529 -122.73552 15650 ft 363 kts 356°
2026-04-22 00:13 46.71022 -122.73641 15491 ft 350 kts 356°
2026-04-22 00:13 46.73434 -122.73728 15333 ft 339 kts 356°
2026-04-22 00:13 46.75780 -122.73833 15213 ft 332 kts 359°
2026-04-22 00:13 46.78092 -122.73430 15076 ft 331 kts 16°
2026-04-22 00:14 46.80187 -122.72004 14778 ft 331 kts 34°
2026-04-22 00:14 46.82021 -122.69921 14382 ft 329 kts 40°
2026-04-22 00:14 46.83789 -122.67743 13997 ft 327 kts 40°
2026-04-22 00:14 46.85544 -122.65616 13627 ft 324 kts 39°
2026-04-22 00:15 46.87307 -122.63573 13266 ft 321 kts 38°
2026-04-22 00:15 46.89124 -122.61500 12892 ft 319 kts 38°
2026-04-22 00:15 46.90868 -122.59517 12536 ft 316 kts 38°
2026-04-22 00:15 46.92618 -122.57589 12179 ft 314 kts 34°
2026-04-22 00:16 46.94579 -122.56002 11976 ft 330 kts 24°
2026-04-22 00:16 46.96780 -122.54835 11976 ft 334 kts 17°
2026-04-22 00:16 46.99031 -122.53861 11975 ft 335 kts 15°
2026-04-22 00:16 47.01291 -122.52916 11973 ft 336 kts 15°
2026-04-22 00:17 47.03539 -122.51963 11974 ft 336 kts 16°
2026-04-22 00:17 47.05792 -122.50993 11988 ft 332 kts 16°
2026-04-22 00:17 47.07993 -122.50171 11968 ft 315 kts 12°
2026-04-22 00:17 47.10173 -122.49634 11958 ft 312 kts
2026-04-22 00:18 47.12328 -122.49222 11662 ft 312 kts
2026-04-22 00:18 47.14501 -122.48834 11269 ft 309 kts
2026-04-22 00:18 47.16601 -122.48460 10920 ft 306 kts
2026-04-22 00:18 47.18743 -122.48073 10575 ft 302 kts
2026-04-22 00:19 47.20815 -122.47731 10242 ft 298 kts
2026-04-22 00:19 47.22907 -122.47417 9988 ft 298 kts
2026-04-22 00:19 47.24998 -122.47106 9812 ft 299 kts
2026-04-22 00:19 47.27076 -122.46794 9635 ft 299 kts
2026-04-22 00:20 47.29225 -122.46468 9451 ft 298 kts
2026-04-22 00:20 47.31332 -122.46147 9271 ft 297 kts
2026-04-22 00:20 47.33364 -122.45835 9091 ft 289 kts
2026-04-22 00:20 47.35333 -122.45578 8911 ft 279 kts
2026-04-22 00:21 47.37239 -122.45526 8728 ft 271 kts 360°
2026-04-22 00:21 47.39132 -122.45529 8553 ft 270 kts 359°
2026-04-22 00:21 47.41004 -122.45542 8376 ft 269 kts 359°
2026-04-22 00:21 47.42884 -122.45551 8196 ft 268 kts 359°
2026-04-22 00:22 47.44757 -122.45553 8018 ft 265 kts 359°
2026-04-22 00:22 47.46574 -122.45552 7837 ft 258 kts 359°
2026-04-22 00:22 47.48340 -122.45553 7658 ft 250 kts 359°
2026-04-22 00:22 47.50061 -122.45557 7477 ft 244 kts 359°
2026-04-22 00:23 47.51758 -122.45566 7298 ft 241 kts 359°
2026-04-22 00:23 47.53435 -122.45606 7121 ft 241 kts 358°
2026-04-22 00:23 47.55114 -122.45652 6944 ft 240 kts 358°
2026-04-22 00:23 47.56815 -122.45698 6765 ft 239 kts 358°
2026-04-22 00:24 47.58487 -122.45740 6587 ft 238 kts 358°
2026-04-22 00:24 47.60152 -122.45781 6409 ft 238 kts 358°
2026-04-22 00:24 47.61812 -122.45820 6230 ft 236 kts 358°
2026-04-22 00:24 47.63448 -122.45858 5963 ft 235 kts 358°
2026-04-22 00:25 47.65137 -122.45897 5675 ft 235 kts 358°
2026-04-22 00:25 47.66776 -122.45934 5408 ft 234 kts 359°
2026-04-22 00:25 47.68392 -122.45471 5223 ft 233 kts 32°
2026-04-22 00:25 47.69423 -122.43694 5016 ft 227 kts 69°
2026-04-22 00:26 47.69689 -122.41424 4981 ft 221 kts 87°
2026-04-22 00:26 47.69750 -122.39140 4976 ft 221 kts 89°
2026-04-22 00:26 47.69815 -122.36837 4974 ft 221 kts 88°
2026-04-22 00:26 47.69875 -122.34551 4972 ft 221 kts 96°
2026-04-22 00:27 47.69316 -122.32379 4863 ft 220 kts 130°
2026-04-22 00:27 47.68073 -122.31058 4578 ft 218 kts 160°
2026-04-22 00:27 47.66582 -122.30594 4314 ft 218 kts 176°
2026-04-22 00:27 47.65068 -122.30537 4045 ft 217 kts 181°
2026-04-22 00:28 47.63559 -122.30584 3773 ft 217 kts 182°
2026-04-22 00:28 47.62027 -122.30630 3498 ft 218 kts 181°
2026-04-22 00:28 47.60528 -122.30655 3266 ft 211 kts 181°
2026-04-22 00:28 47.59113 -122.30667 2951 ft 195 kts 181°
2026-04-22 00:29 47.57805 -122.30675 2642 ft 178 kts 181°
2026-04-22 00:29 47.56599 -122.30684 2426 ft 163 kts 181°
2026-04-22 00:29 47.55508 -122.30692 2201 ft 151 kts 181°
2026-04-22 00:29 47.54496 -122.30701 2006 ft 141 kts 181°
2026-04-22 00:30 47.53510 -122.30712 1831 ft 140 kts 181°
2026-04-22 00:30 47.52529 -122.30723 1660 ft 140 kts 181°
2026-04-22 00:30 47.51528 -122.30731 1485 ft 139 kts 181°
2026-04-22 00:30 47.50558 -122.30755 1293 ft 139 kts 181°
2026-04-22 00:31 47.49595 -122.30754 1103 ft 138 kts 180°
2026-04-22 00:31 47.48633 -122.30751 910 ft 138 kts 181°
2026-04-22 00:31 47.47674 -122.30769 740 ft 138 kts 182°
2026-04-22 00:31 47.46719 -122.30785 541 ft 137 kts 180°
2026-04-22 00:32 47.45774 -122.30780 441 ft 126 kts 180°
2026-04-22 00:32 47.45091 -122.30788 423 ft 71 kts 180°
2026-04-22 00:32 47.44763 -122.30793 411 ft 34 kts 180°
2026-04-22 00:32 47.44623 -122.30764 407 ft 10 kts 143°
2026-04-22 00:33 47.44594 -122.30696 407 ft 1 kts 118°
2026-04-22 00:33 47.44590 -122.30687 407 ft 0 kts 123°
2026-04-22 00:33 47.44590 -122.30685 407 ft 1 kts 123°
2026-04-22 00:33 47.44578 -122.30666 407 ft 4 kts 136°
2026-04-22 00:34 47.44545 -122.30635 406 ft 4 kts 153°
2026-04-22 00:34 47.44499 -122.30624 405 ft 10 kts 181°
2026-04-22 00:34 47.44434 -122.30627 404 ft 10 kts 183°
2026-04-22 00:34 47.44341 -122.30632 402 ft 17 kts 182°
2026-04-22 00:35 47.44204 -122.30635 397 ft 18 kts 179°
2026-04-22 00:35 47.44076 -122.30634 394 ft 15 kts 180°
2026-04-22 00:35 47.44007 -122.30634 392 ft 0 kts 180°
2026-04-22 00:35 47.44005 -122.30634 392 ft 0 kts 180°
2026-04-22 00:36 47.43981 -122.30635 392 ft 6 kts 181°
2026-04-22 00:36 47.43922 -122.30636 390 ft 11 kts 179°
2026-04-22 00:36 47.43824 -122.30637 387 ft 15 kts 181°
2026-04-22 00:36 47.43758 -122.30627 385 ft 4 kts 156°
2026-04-22 00:37 47.43731 -122.30596 385 ft 6 kts 124°
2026-04-22 00:37 47.43724 -122.30561 387 ft 0 kts 82°
2026-04-22 00:37 47.43724 -122.30560 387 ft 0 kts 81°
2026-04-22 00:37 47.43744 -122.30504 389 ft 12 kts 52°
2026-04-22 00:38 47.43771 -122.30459 391 ft 0 kts 45°
2026-04-22 00:38 47.43782 -122.30443 392 ft 0 kts 46°
2026-04-22 00:38 47.43789 -122.30432 392 ft 4 kts 44°
2026-04-22 00:38 47.43799 -122.30418 392 ft 2 kts 45°
2026-04-22 00:39 47.43805 -122.30409 393 ft 1 kts 45°
2026-04-22 00:39 47.43806 -122.30408 393 ft 0 kts 45°